| time (UTC) | temp C | wind direction | speed KPH | gust KPH | rain 1hr cm | rain 24hr cm | rain mn cm | humidity % | barometer mb |
| 20260506003151 | 11 | 278 | 9.7 | 24.1 | 0.03 | 0.33 | 0.05 | 100 | 1011.3 |
| 20260506002649 | 11 | 307 | 9.7 | 24.1 | 0.03 | 0.33 | 0.05 | 100 | 1011.4 |
| 20260506001646 | 11 | 318 | 8.0 | 22.5 | 0.03 | 0.33 | 0.05 | 100 | 1011.4 |
| 20260506001143 | 11 | 306 | 9.7 | 19.3 | 0.03 | 0.33 | 0.05 | 100 | 1011.4 |
| 20260506000641 | 11 | 327 | 11.3 | 19.3 | 0.03 | 0.33 | 0.05 | 100 | 1011.3 |
| 20260506000139 | 11 | 313 | 9.7 | 20.9 | 0.03 | 0.33 | 0.05 | 100 | 1011.4 |
| 20260505235638 | 11 | 306 | 9.7 | 20.9 | 0.03 | 0.33 | 0.05 | 100 | 1011.5 |
| 20260505235135 | 11 | 271 | 6.4 | 20.9 | 0.03 | 0.33 | 0.05 | 100 | 1011.5 |
| 20260505234633 | 11 | 259 | 11.3 | 20.9 | 0.00 | 0.30 | 0.03 | 100 | 1011.4 |
| 20260505234131 | 11 | 270 | 11.3 | 25.7 | 0.00 | 0.30 | 0.03 | 100 | 1011.5 |
| 20260505233633 | 11 | 282 | 12.9 | 19.3 | 0.00 | 0.30 | 0.03 | 100 | 1011.5 |
| 20260505233128 | 11 | 294 | 8.0 | 22.5 | 0.00 | 0.30 | 0.03 | 100 | 1011.5 |
| 20260505232628 | 11 | 315 | 11.3 | 22.5 | 0.00 | 0.30 | 0.03 | 100 | 1011.5 |
| 20260505232123 | 11 | 302 | 12.9 | 27.4 | 0.00 | 0.30 | 0.03 | 100 | 1011.5 |
| 20260505231622 | 11 | 294 | 12.9 | 27.4 | 0.03 | 0.30 | 0.03 | 100 | 1011.7 |
| 20260505231120 | 11 | 293 | 9.7 | 22.5 | 0.03 | 0.30 | 0.03 | 100 | 1011.7 |
| 20260505230618 | 11 | 246 | 8.0 | 22.5 | 0.03 | 0.30 | 0.03 | 100 | 1011.7 |
| 20260505225601 | 11 | 311 | 11.3 | 22.5 | 0.03 | 0.30 | 0.03 | 100 | 1011.7 |
| 20260505225101 | 11 | 275 | 14.5 | 22.5 | 0.03 | 0.30 | 0.03 | 100 | 1011.7 |
| 20260505224558 | 11 | 309 | 8.0 | 20.9 | 0.03 | 0.30 | 0.03 | 100 | 1011.7 |
| 20260505224059 | 11 | 313 | 8.0 | 17.7 | 0.03 | 0.30 | 0.03 | 100 | 1011.8 |
| 20260505223553 | 11 | 309 | 6.4 | 22.5 | 0.05 | 0.30 | 0.03 | 100 | 1011.8 |
| 20260505223052 | 11 | 238 | 9.7 | 22.5 | 0.05 | 0.30 | 0.03 | 100 | 1011.8 |
| 20260505222601 | 11 | 261 | 9.7 | 24.1 | 0.05 | 0.30 | 0.03 | 100 | 1011.7 |
| 20260505221555 | 11 | 292 | 8.0 | 16.1 | 0.03 | 0.28 | 0.00 | 100 | 1011.8 |
| 20260505221048 | 11 | 265 | 8.0 | 22.5 | 0.03 | 0.28 | 0.00 | 100 | 1011.8 |
| 20260505220546 | 11 | 327 | 12.9 | 22.5 | 0.03 | 0.28 | 0.00 | 100 | 1011.8 |
| 20260505220048 | 11 | 316 | 9.7 | 22.5 | 0.05 | 0.28 | 0.28 | 100 | 1011.8 |
| 20260505215541 | 11 | 299 | 9.7 | 20.9 | 0.05 | 0.28 | 0.28 | 100 | 1011.8 |
| 20260505215049 | 11 | 308 | 9.7 | 20.9 | 0.05 | 0.28 | 0.28 | 100 | 1011.8 |
| 20260505214604 | 11 | 290 | 9.7 | 20.9 | 0.05 | 0.28 | 0.28 | 100 | 1011.8 |
| 20260505214050 | 11 | 316 | 11.3 | 22.5 | 0.05 | 0.28 | 0.28 | 100 | 1011.9 |
| 20260505213549 | 11 | 304 | 9.7 | 22.5 | 0.05 | 0.25 | 0.25 | 100 | 1011.9 |
| 20260505213058 | 11 | 302 | 9.7 | 20.9 | 0.05 | 0.25 | 0.25 | 100 | 1011.9 |
| 20260505212547 | 11 | 297 | 8.0 | 19.3 | 0.05 | 0.25 | 0.25 | 100 | 1011.9 |
| 20260505212048 | 11 | 321 | 11.3 | 19.3 | 0.05 | 0.25 | 0.25 | 100 | 1011.9 |
| 20260505211550 | 11 | 290 | 8.0 | 19.3 | 0.05 | 0.25 | 0.25 | 100 | 1011.9 |
| 20260505211051 | 11 | 311 | 9.7 | 24.1 | 0.05 | 0.25 | 0.25 | 100 | 1012.0 |
| 20260505210553 | 11 | 322 | 14.5 | 32.2 | 0.05 | 0.25 | 0.25 | 100 | 1011.9 |
| 20260505210059 | 11 | 306 | 12.9 | 32.2 | 0.03 | 0.23 | 0.23 | 100 | 1011.8 |
| 20260505205547 | 11 | 296 | 11.3 | 24.1 | 0.05 | 0.23 | 0.23 | 100 | 1011.8 |
| 20260505205053 | 11 | 317 | 12.9 | 24.1 | 0.05 | 0.23 | 0.23 | 100 | 1011.9 |
| 20260505204556 | 11 | 294 | 12.9 | 22.5 | 0.05 | 0.23 | 0.23 | 100 | 1011.8 |
| 20260505204050 | 11 | 296 | 12.9 | 22.5 | 0.05 | 0.23 | 0.23 | 100 | 1011.8 |
| 20260505203555 | 11 | 286 | 9.7 | 22.5 | 0.03 | 0.20 | 0.20 | 100 | 1011.8 |
| 20260505203058 | 11 | 311 | 9.7 | 22.5 | 0.03 | 0.20 | 0.20 | 100 | 1011.7 |
| 20260505202554 | 11 | 304 | 11.3 | 22.5 | 0.05 | 0.20 | 0.20 | 100 | 1011.7 |
| 20260505202046 | 11 | 322 | 12.9 | 22.5 | 0.05 | 0.20 | 0.20 | 100 | 1011.7 |
| 20260505201545 | 11 | 303 | 9.7 | 20.9 | 0.05 | 0.20 | 0.20 | 100 | 1011.7 |
| 20260505201044 | 11 | 294 | 8.0 | 25.7 | 0.05 | 0.20 | 0.20 | 100 | 1011.7 |
| 20260505200545 | 11 | 317 | 12.9 | 25.7 | 0.05 | 0.20 | 0.20 | 100 | 1011.5 |
| 20260505200059 | 11 | 273 | 12.9 | 24.1 | 0.05 | 0.20 | 0.20 | 100 | 1011.4 |
| 20260505195542 | 11 | 292 | 12.9 | 24.1 | 0.03 | 0.18 | 0.18 | 100 | 1011.4 |
| 20260505195041 | 11 | 273 | 9.7 | 22.5 | 0.03 | 0.18 | 0.18 | 100 | 1011.4 |
| 20260505194545 | 11 | 300 | 9.7 | 20.9 | 0.03 | 0.18 | 0.18 | 100 | 1011.4 |
| 20260505194036 | 11 | 320 | 9.7 | 20.9 | 0.03 | 0.18 | 0.18 | 100 | 1011.3 |
| 20260505193534 | 11 | 298 | 9.7 | 22.5 | 0.03 | 0.18 | 0.18 | 100 | 1011.2 |
| 20260505193035 | 11 | 303 | 11.3 | 22.5 | 0.05 | 0.18 | 0.18 | 100 | 1011.2 |
| 20260505192535 | 11 | 313 | 8.0 | 22.5 | 0.03 | 0.15 | 0.15 | 100 | 1011.2 |
| 20260505192028 | 11 | 306 | 14.5 | 22.5 | 0.03 | 0.15 | 0.15 | 100 | 1011.2 |
| 20260505191026 | 11 | 324 | 14.5 | 27.4 | 0.03 | 0.15 | 0.15 | 100 | 1011.2 |
| 20260505190523 | 11 | 315 | 9.7 | 20.9 | 0.03 | 0.15 | 0.15 | 100 | 1011.1 |
| 20260505190023 | 11 | 286 | 8.0 | 19.3 | 0.03 | 0.15 | 0.15 | 100 | 1011.1 |
| 20260505185519 | 11 | 303 | 11.3 | 20.9 | 0.05 | 0.15 | 0.15 | 100 | 1011.1 |
| 20260505185017 | 11 | 316 | 8.0 | 25.7 | 0.05 | 0.15 | 0.15 | 100 | 1011.2 |
| 20260505184508 | 11 | 307 | 12.9 | 24.1 | 0.05 | 0.15 | 0.15 | 100 | 1011.1 |
| 20260505184006 | 11 | 313 | 12.9 | 22.5 | 0.05 | 0.15 | 0.15 | 100 | 1011.0 |
| 20260505183504 | 11 | 307 | 8.0 | 19.3 | 0.05 | 0.15 | 0.15 | 100 | 1011.0 |
| 20260505183004 | 11 | 296 | 8.0 | 19.3 | 0.03 | 0.13 | 0.13 | 100 | 1011.0 |
| 20260505182502 | 11 | 312 | 8.0 | 20.9 | 0.03 | 0.13 | 0.13 | 100 | 1011.0 |
| 20260505091700 | 13 | 313 | 12.9 | 20.9 | 0.00 | 0.03 | 0.00 | 100 | 1010.9 |
| 20260505091147 | 12 | 295 | 9.7 | 20.9 | 0.00 | 0.03 | 0.00 | 100 | 1010.9 |
| 20260505090144 | 13 | 317 | 6.4 | 20.9 | 0.00 | 0.03 | 0.00 | 100 | 1011.0 |
| 20260505085642 | 13 | 310 | 8.0 | 17.7 | 0.00 | 0.03 | 0.00 | 100 | 1010.9 |
| 20260505085140 | 13 | 319 | 6.4 | 22.5 | 0.00 | 0.03 | 0.00 | 100 | 1010.9 |
| 20260505084641 | 13 | 310 | 11.3 | 22.5 | 0.00 | 0.03 | 0.00 | 100 | 1010.9 |
| 20260505084138 | 13 | 318 | 8.0 | 19.3 | 0.00 | 0.03 | 0.00 | 100 | 1011.0 |
| 20260505083633 | 13 | 296 | 8.0 | 17.7 | 0.00 | 0.03 | 0.00 | 100 | 1011.0 |
| 20260505083132 | 13 | 313 | 6.4 | 16.1 | 0.00 | 0.03 | 0.00 | 100 | 1011.0 |
| 20260505082631 | 12 | 313 | 8.0 | 16.1 | 0.00 | 0.03 | 0.00 | 100 | 1011.0 |
| 20260505082127 | 12 | 317 | 6.4 | 14.5 | 0.00 | 0.03 | 0.00 | 100 | 1011.0 |
| 20260505081626 | 12 | 324 | 4.8 | 9.7 | 0.00 | 0.03 | 0.00 | 100 | 1011.0 |
| 20260505081124 | 12 | 324 | 4.8 | 14.5 | 0.00 | 0.03 | 0.00 | 100 | 1011.0 |
| 20260505080621 | 12 | 325 | 6.4 | 17.7 | 0.00 | 0.03 | 0.00 | 100 | 1011.0 |
| 20260505080128 | 12 | 311 | 6.4 | 16.1 | 0.00 | 0.05 | 0.00 | 100 | 1011.1 |
| 20260505075618 | 12 | 311 | 8.0 | 16.1 | 0.00 | 0.05 | 0.00 | 100 | 1011.2 |
| 20260505075117 | 12 | 311 | 4.8 | 14.5 | 0.00 | 0.05 | 0.00 | 100 | 1011.2 |
| 20260505074615 | 12 | 311 | 4.8 | 14.5 | 0.00 | 0.05 | 0.00 | 100 | 1011.2 |
| 20260505074103 | 12 | 311 | 4.8 | 12.9 | 0.00 | 0.05 | 0.00 | 100 | 1011.2 |
| 20260505073602 | 12 | 311 | 4.8 | 12.9 | 0.00 | 0.05 | 0.00 | 100 | 1011.2 |
| 20260505073101 | 12 | 311 | 6.4 | 12.9 | 0.00 | 0.05 | 0.00 | 100 | 1011.1 |
| 20260505072557 | 12 | 311 | 6.4 | 12.9 | 0.00 | 0.05 | 0.00 | 100 | 1011.2 |
| 20260505072056 | 12 | 311 | 6.4 | 12.9 | 0.00 | 0.05 | 0.00 | 100 | 1011.2 |
| 20260505071558 | 12 | 311 | 4.8 | 9.7 | 0.00 | 0.05 | 0.00 | 100 | 1011.1 |
| 20260505071051 | 12 | 311 | 4.8 | 9.7 | 0.00 | 0.05 | 0.00 | 100 | 1011.2 |
| 20260505070050 | 12 | 311 | 4.8 | 9.7 | 0.00 | 0.05 | 0.00 | 100 | 1011.2 |
| 20260505065546 | 11 | 311 | 4.8 | 14.5 | 0.00 | 0.05 | 0.00 | 100 | 1011.2 |
| 20260505065043 | 11 | 311 | 6.4 | 14.5 | 0.00 | 0.05 | 0.00 | 100 | 1011.2 |
| 20260505064542 | 11 | 311 | 6.4 | 14.5 | 0.00 | 0.05 | 0.00 | 100 | 1011.3 |
| 20260505064041 | 12 | 311 | 4.8 | 12.9 | 0.00 | 0.05 | 0.00 | 100 | 1011.3 |
| 20260505063538 | 12 | 311 | 4.8 | 12.9 | 0.00 | 0.05 | 0.00 | 100 | 1011.3 |
| 20260505063044 | 11 | 311 | 3.2 | 14.5 | 0.00 | 0.05 | 0.00 | 100 | 1011.3 |
| 20260505062532 | 11 | 311 | 6.4 | 14.5 | 0.00 | 0.05 | 0.00 | 100 | 1011.3 |
| 20260505062032 | 11 | 311 | 3.2 | 9.7 | 0.00 | 0.05 | 0.00 | 100 | 1011.4 |
| 20260505061554 | 11 | 311 | 3.2 | 12.9 | 0.00 | 0.05 | 0.00 | 100 | 1011.4 |
| 20260505061027 | 11 | 311 | 3.2 | 9.7 | 0.00 | 0.05 | 0.00 | 100 | 1011.4 |
| 20260505060023 | 11 | 311 | 4.8 | 8.0 | 0.00 | 0.05 | 0.00 | 100 | 1011.3 |
| 20260505055524 | 11 | 311 | 1.6 | 6.4 | 0.00 | 0.05 | 0.00 | 100 | 1011.4 |
| 20260505055019 | 11 | 311 | 0.0 | 4.8 | 0.00 | 0.05 | 0.00 | 100 | 1011.3 |
| 20260505054518 | 11 | 311 | 0.0 | 6.4 | 0.00 | 0.05 | 0.00 | 100 | 1011.3 |
| 20260505054018 | 11 | 311 | 3.2 | 6.4 | 0.00 | 0.05 | 0.00 | 100 | 1011.4 |
| 20260505053514 | 11 | 311 | 3.2 | 9.7 | 0.00 | 0.05 | 0.00 | 100 | 1011.4 |
| 20260505053012 | 11 | 311 | 3.2 | 12.9 | 0.00 | 0.05 | 0.00 | 100 | 1011.4 |
| 20260505052509 | 11 | 311 | 3.2 | 12.9 | 0.00 | 0.05 | 0.00 | 100 | 1011.3 |
| 20260505052009 | 11 | 311 | 3.2 | 8.0 | 0.00 | 0.05 | 0.00 | 100 | 1011.2 |